Weather in Pinerovka

Russia / Saratov Oblast     51°33′31″N   43°03′52″E
В апреле 2022 года жителям России запретили посещать сайт meteo.paraplan.net по решению Генеральной прокуратуры. Аудитория сайта уменьшилась в 10 раз. Владельцы сайта не видят смысла в поддержке погодного сервера в таких условиях. Сайт будет закрыт в октябре.
temp.,
°C
wind,
m/s
gust,
m/s
humid.,
%
clouds,
%
prec.,
mm/h
press.,
hPa
HPBL,
m
4 october, tue
tue401:00+10se46717 0.0 101598
04:00+10sse497776 0.0 1015168
07:00+9sse41076100 0.0 1016204
10:00+13sse5962100 0.0 1016424
13:00+17s694696 0.0 10161439
16:00+19s6942100 0.0 10161876
19:00+15sse61252100 0.0 1017394
22:00+13sse6118495 0.1 1018519
5 october, wed
wed501:00+12sse7118987 0.2 1017447
04:00+11s5119433 0.3 1018408
07:00+11s4109422 0.1 1018342
10:00+13sw57666 0.1 1019649
13:00+15sw6847100 0.0 10191235
16:00+16sw694528 0.0 10181852
19:00+12wsw510615 0.0 1020904
22:00+11wsw486736 0.0 1020936
6 october, thu
thu601:00+10w487851 0.1 1020631
04:00+7wsw38926 0.1 1021249
07:00+6wsw48955 0.0 1021268
10:00+9w58748 0.0 1021621
13:00+11wnw7969100 0.1 10211132
16:00+10w4781100 0.3 1021703
19:00+10wsw599067 0.3 1022602
22:00+10w369257 0.3 1022269
7 october, fri
fri701:00+10wsw2592100 0.0 1023200
04:00+10sw3691100 0.1 1022256
07:00+10sw4887100 0.0 1022255
10:00+13wsw587411 0.0 1022465
13:00+16w675832 0.0 1022954
16:00+18wnw67544 0.0 10211210
19:00+16nw5864100 0.0 1023450
22:00+14nnw36711 0.0 1025235
8 october, sat
sat801:00+10nnw34870 0.0 102673
04:00+8nne33910 0.0 102764
07:00+7ne22930 0.0 102821
10:00+11e22730 0.0 1028298
13:00+15ese22520 0.0 1027800
16:00+17se22430 0.0 10251076
19:00+14ese22555 0.0 102512
22:00+12sse34605 0.0 102562